Location: Ku?niki
(51.4449°N, 17.8974°E)
Time: 01:22:35
(UTC+00:00)

ZACube-1 - Pass Details

Date: 28 June 2022
Orbit: 582 x 661 km, 97.6° (Epoch: 07 August)

Event Time Altitude Azimuth Distance (km) Brightness Sun altitude
Rises 01:16:46 0° 31° (NNE) 2,932 ? -8.8°
Reaches altitude 10° 01:20:31 10° 65° (ENE) 2,037 ? -8.4°
Maximum altitude 01:22:04 12° 85° (E) 1,935 ? -8.3°
Drops below altitude 10° 01:23:37 10° 106° (ESE) 2,046 ? -8.2°
Sets 01:27:24 0° 139° (SE) 2,965 ? -7.8°
